Find Starlink 34187

NORAD ID: 63956 Int'l Des: 2025-099 Owner: SPXS Country: US Constellation: starlink operational
LEOCIRCULAR

Live Position

Loading 3D Globe...

About Starlink 34187

Description loading...

Upcoming Passes

Passes for default location (London). Set your location on the main map for personalized predictions.

Altitude History

Loading altitude history...

Two-Line Element Set

1 63956U 25099E 26106.87721551 .00008015 00000-0 30043-3 0 9992
2 63956 43.0063 320.8182 0001261 266.3325 93.7382 15.27584225 53177
Epoch: Apr 16, 2026 • Age: 7 hours

Current Status

Altitude 482.3 km
Velocity 7.63 km/s
Sub-Earth Point 8.71°N, 136.42°W
Launch Date May 13, 2025
Age 0.9 years
Type internet

Technical Details

Classification Payload
Mass 575.00 kg
Dry Mass 530.00 kg
Total Mass 575.00 kg
Length 0.30 m
Diameter 4.10 m
Span 29.00 m
Shape Box + pan
Manufacturer SPXS
Bus Type Starlink V2MO
Phase Status In Orbit
Owner/State SPXS/US

Most Searched